Regional Weather Roundup
Issued by NWS Green Bay, WI

Home | Current Version | Previous Version | Graphics & Text | Print | Product List | Glossary Off
Versions: 1 2 3 4 5 6 7 8 9 10 11 12 13 14 15 16 17 18 19 20 21 22 23 24 25 26 27 28 29 30 31 32 33 34 35 36 37 38 39 40 41 42 43 44 45 46 47 48 49 50

000
ASUS43 KGRB 011159
RWRGRB

NORTH-CENTRAL AND NORTHEAST WISCONSIN REGIONAL WEATHER ROUNDUP
NATIONAL WEATHER SERVICE GREEN BAY WI
700 AM CDT WED OCT 01 2014

WIZ005-009-010>012-018-019-011300-
NORTH CENTRAL WISCONSIN

CITY           SKY/WX    TMP DP  RH WIND       PRES   REMARKS
IRONWOOD       NOT AVBL
MANITOWISH WTR NOT AVBL
ARBOR VITAE    NOT AVBL
EAGLE RIVER    NOT AVBL
LAND O LAKES   NOT AVBL
RHINELANDER    CLOUDY    43  42  97 S6        29.99F
PHILLIPS       CLOUDY    44  42  94 SE8G17    29.95F
ANTIGO         NOT AVBL
TOMAHAWK       NOT AVBL
MERRILL        NOT AVBL
$$

WIZ013-073-011300-
NORTHEAST WISCONSIN

CITY           SKY/WX    TMP DP  RH WIND       PRES   REMARKS
IRON MOUNTAIN  CLOUDY    48  46  93 S3        30.00F FOG
MARINETTE      NOT AVBL
$$

WIZ017-030-035>037-045-011300-
CENTRAL WISCONSIN

CITY           SKY/WX    TMP DP  RH WIND       PRES   REMARKS
MEDFORD        NOT AVBL
WAUSAU         CLOUDY    46  45  96 SE8       29.98F
MOSINEE        CLOUDY    46  46 100 SE6       29.99F
MARSHFIELD     CLOUDY    47  45  93 SE8       29.97F
WISC RAPIDS    CLOUDY    48  46  93 E6        29.99F
STEVENS POINT  NOT AVBL
WAUPACA        NOT AVBL
SHAWANO        CLOUDY    49  48  94 CALM      30.03S FOG
CLINTONVILLE   CLOUDY    46  46 100 CALM      30.02S FOG
$$

WIZ038-039-048-051-011300-
FOX VALLEY

CITY           SKY/WX    TMP DP  RH WIND       PRES   REMARKS
NWS GREEN BAY  CLOUDY    50  50 100 CALM      30.02S
APPLETON       CLOUDY    48  48 100 CALM      30.02S FOG
OSHKOSH        CLOUDY    51  49  92 NE3       30.00F
FOND DU LAC    CLOUDY    51  48  89 E3        30.00F
$$

WIZ022-050-052-011300-
EAST CENTRAL WISCONSIN

CITY           SKY/WX    TMP DP  RH WIND       PRES   REMARKS
STURGEON BAY   NOT AVBL
MANITOWOC      NOT AVBL
SHEBOYGAN      NOT AVBL
$$

LMZ563-521-522-541>543-011300-
LAKESHORE

STATION/POSITION TIME  TEMP    WIND        PRES    VSBY  WAVE
                       AIR SEA DIR/SP/G                  HT/PER
                 (UTC) (F)     (DEG/KT/KT) (MB)    (MI)  (FT/S)
SHEBOYGAN LKSHOR 1100   56 54  130/ 15/ 17 1016.5F
KEWAUNEE LKSHORE 1100   53     150/  8/ 10 1015.9R
NORTHPORT PIER   1100   53     170/  5/ 11 1016.6F
N MID LAKE BUOY  1100   54 58  180/ 10/ 12 1017.2S         1/ 3
CHAMBERS ISLAND  1100   52     140/  1/  5 1016.9R
MENOMINEE LKSHOR 1100   53     180/  6/  8 1017.3R
$$


USA.gov is the U.S. government's official web portal to all federal, state and local government web resources and services.